Showing default

CONNECTA IOT-4, 60524

Orbit data source: Space-Track

CONNECTA IOT-4, 60524 is a payload satellite owned by Plan-S (TR) in SSO that was launched on Fri, 16 Aug 2024 UTC via an FALCON 9 launch vehicle from the Air Force Western Test Range (AFWTR). Payload-class satellites include a variety of spacecraft equipped with specific instruments for various scientific and technological missions. These include communications satellites like Starlink; space stations such as the ISS; scientific satellites like the Hubble; Earth observation satellites from companies like Planet Labs, Umbra, and HawkEye 360; GPS; miniature CubeSats for education and research; and military/defense satellites.

Loading next visibility...
Identifier
60524, 2024-149BJ
Orbit
SSO
Country
Flag of UnknownUnknown / TURK
Related business
Manufacturer
Plan-S
Mission
Operational Commercial Communications
Bus & Motor
CUBESAT 6U, Unknown motor
Mass
10 kg wet, 10 kg dry
Launch date (UTC)
2024-08-16 (1 year ago)
Launch vehicle
FALCON 9
Launch site
Air Force Western Test Range (AFWTR)
Object type
Payload
Rocket body
Debris
Shape & HBR
Box, 2.2 m
Radar Cross Section
0.080 m², Medium (>0.1 m² and < 1m²)

Expand to show TLE details & history
Last TLE update: 18 hours ago

TLE from 18 hours ago
0 CONNECTA IOT-4
1 60524U 24149BJ  25286.91939164  .00020763  00000-0  66674-3 0  9992
2 60524  97.4009   4.8789 0007397  95.1263 265.0823 15.32298018 64494
Epoch: 2025-10-13T22:03Z
TLE epoch observation values (Epoch: 2025-10-13T22:03:55.437Z)
Latitude
-0.00006°
Longitude
11.18265°
Altitude
472.503 km
Speed
7.629 km/s
True Right ascension
00h 19m 30s
True Declination
0° 00' 00"
Sunlit
Object was in full shadow at epoch
Visualization orbit readout
Latitude
Unknown
Longitude
Unknown
Altitude
Unknown
Speed
Unknown
Apparent Right ascension
Unknown
Apparent Declination
Unknown
Sunlit
N/A
Visualization observer readout
Local Sidereal Time
10:33:11
Azimuth
Unknown
Elevation
Unknown
Doppler factor
Unknown
Orbital elements
Apogee altitude
470.97 km
Perigee altitude
460.845 km
Semi-major axis
6,844.044 km
Eccentricity
0.00074
Inclination
97.4009°
RAAN
4.8789°
Arg. of periapsis
95.1263°
True anomaly
264.99786°
Mean anomaly
265.0823°
Eccentric anomaly
265.04008°
Mean motion
3.83331 °/min
Orbital period
93.91 mins
BSTAR
0.00066674
Loading maneuver chart data...
Computing Atmospheric mass density...
Loading historical data...
Loading historical data...
Loading historical data...
Loading historical data...
Loading historical data...
Loading historical data...
Loading historical data...

Documentation

Showing up to 5 results
|